This is the latest recevied weather packets stored in our database for station/object N3TCR-13. If no packets are shown the sender has not sent any weather packets the latest 10 day(s).
| Time | Temp. | Humidity | Pressure | Rain* | Wind** | Luminosity | Snow |
|---|---|---|---|---|---|---|---|
| 1777588217 | 14.44° C | 57% | 994.1 hPa | 0 mm | - | - | - |
| 1777587357 | 15° C | 55% | 994 hPa | 0 mm | - | - | - |
| 1777581017 | 16.67° C | 48% | 992.7 hPa | 0 mm | - | - | - |
| 1777569317 | 18.89° C | 50% | 992.7 hPa | 0 mm | - | - | - |
| 1777567517 | 18.33° C | 50% | 992.9 hPa | 0 mm | - | - | - |
| 1777564818 | 17.78° C | 58% | 993 hPa | 0 mm | - | - | - |
| 1777563018 | 17.22° C | 62% | 993.3 hPa | 0 mm | - | - | - |
| 1777560319 | 16.67° C | 76% | 993.5 hPa | 0 mm | - | - | - |
| 1777559419 | 16.67° C | 81% | 993.7 hPa | 0 mm | - | - | - |
| 1777554918 | 14.44° C | 100% | 993.2 hPa | 0.25 mm | - | - | - |
| 1777553118 | 13.89° C | 100% | 992.8 hPa | 0 mm | - | - | - |
| 1777552217 | 13.33° C | 100% | 992.8 hPa | 0 mm | - | - | - |
| 1777542317 | 10° C | 100% | 992.3 hPa | 0 mm | - | - | - |
| 1777536017 | 11.11° C | 100% | 991.6 hPa | 0 mm | - | - | - |
| 1777532417 | 11.11° C | 100% | 991.4 hPa | 0 mm | - | - | - |
| 1777527917 | 11.11° C | 100% | 991.5 hPa | 0 mm | - | - | - |
| 1777527017 | 11.11° C | 100% | 991.7 hPa | 0 mm | - | - | - |
| 1777517117 | 11.11° C | 100% | 992.2 hPa | 0.25 mm | - | - | - |
| 1777515317 | 11.67° C | 100% | 992.4 hPa | 2.03 mm | - | - | - |
| 1777502716 | 12.78° C | 100% | 990.4 hPa | 3.3 mm | - | - | - |
| 1777497318 | 14.44° C | 100% | 992.5 hPa | 0 mm | - | - | - |
| 1777496438 | 14.44° C | 100% | 992.4 hPa | 0 mm | - | - | - |
| 1777487418 | 13.89° C | 100% | 995.1 hPa | 0 mm | - | - | - |
| 1777476617 | 12.78° C | 100% | 997.7 hPa | 0 mm | - | - | - |
| 1777475738 | 12.78° C | 100% | 998 hPa | 0 mm | - | - | - |
* Rain latest hour (hover to see other rain measurements)
** Current wind speed in m/s (hover to see current wind gust speed)